DAL1264 KORD-KATL

Flight info

Callsign DAL1264
Flight time 1h 42m
Altitude 34000
Route CMSKY CARYN CYBIL PXV/N0453F350 HITMN NEWBB IHAVE MTHEW CHPPR1
Aircraft A321/M-SDE3FGHIRWY/LB1

Departure

Time 2026-05-06 13:47
Airport Chicago O'Hare International Airport (KORD)

Arrival

Time 2026-05-06 15:29
Airport Hartsfield Jackson Atlanta International Airport (KATL)
Time Latitude Longitude Altitude Speed Heading
2026-05-06 13:27 41.97592 -87.89232 669 ft 0 kts 68°
2026-05-06 13:37 41.97586 -87.89253 669 ft 4 kts 68°
2026-05-06 13:38 41.97576 -87.89287 666 ft 4 kts 68°
2026-05-06 13:38 41.97568 -87.89314 668 ft 4 kts 50°
2026-05-06 13:38 41.97548 -87.89331 667 ft 4 kts
2026-05-06 13:38 41.97523 -87.89333 667 ft 2 kts 359°
2026-05-06 13:39 41.97522 -87.89333 667 ft 0 kts 359°
2026-05-06 13:41 41.97524 -87.89333 667 ft 1 kts 359°
2026-05-06 13:41 41.97544 -87.89334 668 ft 5 kts 356°
2026-05-06 13:41 41.97579 -87.89363 668 ft 7 kts 306°
2026-05-06 13:42 41.97586 -87.89439 669 ft 9 kts 271°
2026-05-06 13:42 41.97594 -87.89504 666 ft 7 kts 314°
2026-05-06 13:42 41.97651 -87.89526 666 ft 11 kts
2026-05-06 13:42 41.97739 -87.89525 669 ft 15 kts
2026-05-06 13:43 41.97843 -87.89526 669 ft 16 kts 359°
2026-05-06 13:43 41.97944 -87.89506 669 ft 16 kts 29°
2026-05-06 13:43 41.98013 -87.89408 669 ft 14 kts 50°
2026-05-06 13:43 41.98077 -87.89305 668 ft 7 kts 50°
2026-05-06 13:44 41.98093 -87.89284 669 ft 1 kts 34°
2026-05-06 13:44 41.98099 -87.89286 669 ft 1 kts 347°
2026-05-06 13:44 41.98104 -87.89294 669 ft 1 kts 304°
2026-05-06 13:44 41.98110 -87.89317 668 ft 4 kts 294°
2026-05-06 13:45 41.98132 -87.89365 669 ft 8 kts 309°
2026-05-06 13:45 41.98246 -87.89520 669 ft 15 kts 316°
2026-05-06 13:45 41.98304 -87.89594 670 ft 12 kts 320°
2026-05-06 13:46 41.98364 -87.89666 671 ft 10 kts 312°
2026-05-06 13:46 41.98390 -87.89836 671 ft 43 kts 269°
2026-05-06 13:46 41.98388 -87.90559 667 ft 109 kts 270°
2026-05-06 13:46 41.98389 -87.91811 670 ft 157 kts 270°
2026-05-06 13:47 41.98383 -87.93393 990 ft 170 kts 269°
2026-05-06 13:47 41.98366 -87.94967 1701 ft 167 kts 271°
2026-05-06 13:47 41.98349 -87.96523 2407 ft 166 kts 270°
2026-05-06 13:47 41.98191 -87.97562 2642 ft 182 kts 245°
2026-05-06 13:48 41.96694 -87.98799 3055 ft 209 kts 181°
2026-05-06 13:48 41.95177 -87.98568 3225 ft 231 kts 171°
2026-05-06 13:48 41.93518 -87.98121 3362 ft 256 kts 169°
2026-05-06 13:48 41.91719 -87.97636 3921 ft 267 kts 171°
2026-05-06 13:49 41.89873 -87.97187 4736 ft 271 kts 172°
2026-05-06 13:49 41.88002 -87.96772 5573 ft 274 kts 173°
2026-05-06 13:49 41.86111 -87.96376 6392 ft 276 kts 174°
2026-05-06 13:49 41.84204 -87.95993 7146 ft 279 kts 175°
2026-05-06 13:50 41.82268 -87.95614 7868 ft 283 kts 175°
2026-05-06 13:50 41.80335 -87.95241 8580 ft 287 kts 176°
2026-05-06 13:50 41.78346 -87.94859 9285 ft 291 kts 176°
2026-05-06 13:50 41.76326 -87.94473 9984 ft 295 kts 176°
2026-05-06 13:51 41.74257 -87.94080 10379 ft 311 kts 177°
2026-05-06 13:51 41.72037 -87.93663 10519 ft 333 kts 177°
2026-05-06 13:51 41.69688 -87.93216 10821 ft 347 kts 176°
2026-05-06 13:51 41.67282 -87.92749 11415 ft 351 kts 177°
2026-05-06 13:52 41.65644 -87.92427 11870 ft 352 kts 177°
2026-05-06 13:52 41.63243 -87.91954 12545 ft 354 kts 178°
2026-05-06 13:52 41.60802 -87.91477 13235 ft 355 kts 178°
2026-05-06 13:52 41.58351 -87.91001 13906 ft 357 kts 178°
2026-05-06 13:53 41.55887 -87.90525 14485 ft 359 kts 179°
2026-05-06 13:53 41.53400 -87.90047 15049 ft 362 kts 179°
2026-05-06 13:53 41.50898 -87.89567 15602 ft 365 kts 179°
2026-05-06 13:53 41.48376 -87.89085 16147 ft 368 kts 179°
2026-05-06 13:54 41.45829 -87.88598 16692 ft 371 kts 179°
2026-05-06 13:54 41.43270 -87.88107 17251 ft 374 kts 180°
2026-05-06 13:54 41.40693 -87.87818 17771 ft 369 kts 188°
2026-05-06 13:54 41.38138 -87.88020 18288 ft 368 kts 192°
2026-05-06 13:55 41.35581 -87.88269 18746 ft 370 kts 192°
2026-05-06 13:55 41.32998 -87.88512 19220 ft 372 kts 192°
2026-05-06 13:55 41.30417 -87.88750 19691 ft 373 kts 192°
2026-05-06 13:55 41.27816 -87.88993 20154 ft 375 kts 192°
2026-05-06 13:56 41.25209 -87.89226 20615 ft 378 kts 191°
2026-05-06 13:56 41.22552 -87.89188 21066 ft 384 kts 187°
2026-05-06 13:56 41.19877 -87.89099 21517 ft 385 kts 187°
2026-05-06 13:56 41.17186 -87.89010 21964 ft 387 kts 188°
2026-05-06 13:57 41.14483 -87.88924 22402 ft 389 kts 188°
2026-05-06 13:57 41.11767 -87.88842 22835 ft 391 kts 188°
2026-05-06 13:57 41.09044 -87.88764 23253 ft 393 kts 188°
2026-05-06 13:57 41.06336 -87.88690 23652 ft 395 kts 188°
2026-05-06 13:58 41.03577 -87.88611 23997 ft 397 kts 188°
2026-05-06 13:58 41.00806 -87.88530 24329 ft 399 kts 189°
2026-05-06 13:58 40.98022 -87.88447 24660 ft 401 kts 189°
2026-05-06 13:58 40.95223 -87.88361 24990 ft 403 kts 189°
2026-05-06 13:59 40.92410 -87.88273 25312 ft 405 kts 189°
2026-05-06 13:59 40.89587 -87.88185 25629 ft 407 kts 190°
2026-05-06 13:59 40.86746 -87.88098 25948 ft 409 kts 190°
2026-05-06 13:59 40.83898 -87.88012 26257 ft 411 kts 191°
2026-05-06 14:00 40.81036 -87.87925 26562 ft 412 kts 191°
2026-05-06 14:00 40.78224 -87.87837 26861 ft 414 kts 191°
2026-05-06 14:00 40.75272 -87.87745 27171 ft 416 kts 191°
2026-05-06 14:00 40.72371 -87.87655 27452 ft 418 kts 192°
2026-05-06 14:01 40.69450 -87.87565 27744 ft 420 kts 192°
2026-05-06 14:01 40.66519 -87.87475 28026 ft 422 kts 192°
2026-05-06 14:01 40.63583 -87.87386 28305 ft 423 kts 192°
2026-05-06 14:01 40.60630 -87.87300 28576 ft 425 kts 193°
2026-05-06 14:02 40.57670 -87.87219 28836 ft 427 kts 193°
2026-05-06 14:02 40.54695 -87.87141 29091 ft 428 kts 193°
2026-05-06 14:02 40.51707 -87.87059 29355 ft 430 kts 193°
2026-05-06 14:02 40.48707 -87.86972 29603 ft 432 kts 193°
2026-05-06 14:03 40.45730 -87.86881 29862 ft 434 kts 194°
2026-05-06 14:03 40.42706 -87.86785 30102 ft 436 kts 194°
2026-05-06 14:03 40.39680 -87.86684 30421 ft 434 kts 194°
2026-05-06 14:03 40.36665 -87.86583 30758 ft 432 kts 194°
2026-05-06 14:04 40.33671 -87.86491 31087 ft 430 kts 195°
2026-05-06 14:04 40.30685 -87.86400 31426 ft 429 kts 195°
2026-05-06 14:04 40.27703 -87.86291 31760 ft 428 kts 195°
2026-05-06 14:04 40.24729 -87.86162 32095 ft 426 kts 194°
2026-05-06 14:05 40.21770 -87.86021 32432 ft 425 kts 195°
2026-05-06 14:05 40.18820 -87.85878 32758 ft 423 kts 195°
2026-05-06 14:05 40.15881 -87.85736 33087 ft 422 kts 195°
2026-05-06 14:05 40.12957 -87.85600 33413 ft 420 kts 195°
2026-05-06 14:06 40.10041 -87.85471 33735 ft 418 kts 195°
2026-05-06 14:06 40.07136 -87.85347 33974 ft 418 kts 195°
2026-05-06 14:06 40.01379 -87.85092 34019 ft 410 kts 196°
2026-05-06 14:07 39.95724 -87.84854 34020 ft 409 kts 196°
2026-05-06 14:07 39.90039 -87.84614 34017 ft 409 kts 196°
2026-05-06 14:08 39.84355 -87.84366 34027 ft 409 kts 196°
2026-05-06 14:08 39.78671 -87.84117 34027 ft 408 kts 196°
2026-05-06 14:09 39.72993 -87.83868 34020 ft 408 kts 196°
2026-05-06 14:09 39.67318 -87.83627 34012 ft 408 kts 196°
2026-05-06 14:10 39.62591 -87.83427 34009 ft 408 kts 196°
2026-05-06 14:10 39.56915 -87.83181 34004 ft 408 kts 196°
2026-05-06 14:11 39.51250 -87.82930 33996 ft 407 kts 196°
2026-05-06 14:11 39.45584 -87.82679 33987 ft 407 kts 196°
2026-05-06 14:12 39.39924 -87.82435 33984 ft 407 kts 196°
2026-05-06 14:12 39.34262 -87.82196 33979 ft 406 kts 196°
2026-05-06 14:13 39.28610 -87.81959 33985 ft 406 kts 196°
2026-05-06 14:13 39.22960 -87.81711 33990 ft 406 kts 195°
2026-05-06 14:14 39.17306 -87.81464 33991 ft 406 kts 195°
2026-05-06 14:14 39.11654 -87.81222 33995 ft 406 kts 195°
2026-05-06 14:15 39.06038 -87.80979 34003 ft 406 kts 195°
2026-05-06 14:15 39.00396 -87.80741 34001 ft 406 kts 195°
2026-05-06 14:16 38.94742 -87.80503 33999 ft 406 kts 195°
2026-05-06 14:16 38.89100 -87.80265 33995 ft 406 kts 195°
2026-05-06 14:17 38.83454 -87.80026 34085 ft 405 kts 195°
2026-05-06 14:17 38.77820 -87.79790 34095 ft 405 kts 195°
2026-05-06 14:18 38.72182 -87.79548 34096 ft 405 kts 195°
2026-05-06 14:18 38.66549 -87.79310 34095 ft 405 kts 195°
2026-05-06 14:19 38.60916 -87.79077 34029 ft 405 kts 195°
2026-05-06 14:19 38.55326 -87.78840 34033 ft 405 kts 195°
2026-05-06 14:20 38.49698 -87.78608 34023 ft 405 kts 195°
2026-05-06 14:20 38.44068 -87.78367 34017 ft 405 kts 195°
2026-05-06 14:21 38.38440 -87.78128 34002 ft 404 kts 195°
2026-05-06 14:21 38.32813 -87.77896 33996 ft 404 kts 195°
2026-05-06 14:22 38.27186 -87.77665 33989 ft 405 kts 195°
2026-05-06 14:22 38.21557 -87.77431 33995 ft 405 kts 195°
2026-05-06 14:23 38.15918 -87.77187 33995 ft 405 kts 195°
2026-05-06 14:23 38.10277 -87.76949 33997 ft 406 kts 195°
2026-05-06 14:24 38.04631 -87.76720 33998 ft 406 kts 195°
2026-05-06 14:24 37.98979 -87.76491 34002 ft 406 kts 195°
2026-05-06 14:25 37.93302 -87.75908 34002 ft 429 kts 184°
2026-05-06 14:25 37.90375 -87.74731 34000 ft 454 kts 172°
2026-05-06 14:25 37.87488 -87.72970 34002 ft 462 kts 170°
2026-05-06 14:26 37.81715 -87.69374 33999 ft 462 kts 170°
2026-05-06 14:26 37.75933 -87.65813 33997 ft 463 kts 170°
2026-05-06 14:27 37.70127 -87.62264 33995 ft 463 kts 170°
2026-05-06 14:27 37.65298 -87.59311 33992 ft 464 kts 170°
2026-05-06 14:28 37.58504 -87.55155 33987 ft 465 kts 169°
2026-05-06 14:28 37.52712 -87.51618 33977 ft 466 kts 169°
2026-05-06 14:29 37.46870 -87.48051 33973 ft 467 kts 169°
2026-05-06 14:29 37.41017 -87.44483 33973 ft 468 kts 169°
2026-05-06 14:30 37.35154 -87.40924 33978 ft 468 kts 169°
2026-05-06 14:30 37.29275 -87.37362 33962 ft 469 kts 169°
2026-05-06 14:31 37.23383 -87.33792 33961 ft 471 kts 169°
2026-05-06 14:31 37.17516 -87.30246 33951 ft 471 kts 169°
2026-05-06 14:32 37.11601 -87.26684 33959 ft 472 kts 169°
2026-05-06 14:32 37.05669 -87.23107 33962 ft 473 kts 169°
2026-05-06 14:33 36.99723 -87.19540 33962 ft 474 kts 169°
2026-05-06 14:33 36.93775 -87.15966 33963 ft 475 kts 169°
2026-05-06 14:34 36.87818 -87.12393 33962 ft 475 kts 169°
2026-05-06 14:34 36.81853 -87.08828 33960 ft 475 kts 169°
2026-05-06 14:35 36.75889 -87.05264 33957 ft 475 kts 169°
2026-05-06 14:35 36.69968 -87.01726 33966 ft 475 kts 169°
2026-05-06 14:36 36.64013 -86.98177 33972 ft 474 kts 168°
2026-05-06 14:36 36.58062 -86.94646 33975 ft 473 kts 168°
2026-05-06 14:37 36.52120 -86.91129 33978 ft 472 kts 168°
2026-05-06 14:37 36.46189 -86.87617 33972 ft 472 kts 168°
2026-05-06 14:38 36.40277 -86.84117 33962 ft 471 kts 168°
2026-05-06 14:38 36.35362 -86.81219 33965 ft 470 kts 168°
2026-05-06 14:39 36.28468 -86.77162 33963 ft 469 kts 167°
2026-05-06 14:39 36.22580 -86.73703 33970 ft 468 kts 167°
2026-05-06 14:40 36.17689 -86.70831 33966 ft 468 kts 167°
2026-05-06 14:40 36.11825 -86.67322 33962 ft 471 kts 165°
2026-05-06 14:41 36.06061 -86.63344 33957 ft 477 kts 161°
2026-05-06 14:41 36.00367 -86.59139 33966 ft 477 kts 161°
2026-05-06 14:42 35.94644 -86.55003 33965 ft 476 kts 162°
2026-05-06 14:42 35.88901 -86.50982 33585 ft 472 kts 162°
2026-05-06 14:43 35.86050 -86.49003 33085 ft 469 kts 161°
2026-05-06 14:43 35.83216 -86.47030 32916 ft 468 kts 161°
2026-05-06 14:43 35.77531 -86.43065 32959 ft 470 kts 161°
2026-05-06 14:44 35.71843 -86.39084 32964 ft 470 kts 160°
2026-05-06 14:45 35.63340 -86.33038 32938 ft 471 kts 160°
2026-05-06 14:45 35.57665 -86.29012 32928 ft 471 kts 160°
2026-05-06 14:46 35.51988 -86.24998 32923 ft 471 kts 159°
2026-05-06 14:46 35.46298 -86.20983 32922 ft 472 kts 159°
2026-05-06 14:47 35.40768 -86.16502 32946 ft 484 kts 150°
2026-05-06 14:47 35.35487 -86.11355 32943 ft 486 kts 149°
2026-05-06 14:48 35.30181 -86.06201 32948 ft 487 kts 149°
2026-05-06 14:48 35.27518 -86.03623 32743 ft 489 kts 149°
2026-05-06 14:48 35.24847 -86.01044 32451 ft 489 kts 149°
2026-05-06 14:48 35.22176 -85.98478 32202 ft 486 kts 149°
2026-05-06 14:49 35.19519 -85.95934 31948 ft 484 kts 150°
2026-05-06 14:49 35.16873 -85.93411 31697 ft 481 kts 149°
2026-05-06 14:49 35.14242 -85.90898 31449 ft 479 kts 149°
2026-05-06 14:49 35.11617 -85.88391 31205 ft 477 kts 149°
2026-05-06 14:50 35.09007 -85.85900 30959 ft 475 kts 149°
2026-05-06 14:50 35.06407 -85.83419 30723 ft 473 kts 149°
2026-05-06 14:50 35.03820 -85.80952 30486 ft 471 kts 149°
2026-05-06 14:50 35.01242 -85.78499 30248 ft 469 kts 149°
2026-05-06 14:51 34.98668 -85.76055 30012 ft 468 kts 149°
2026-05-06 14:51 34.96141 -85.73654 29625 ft 464 kts 149°
2026-05-06 14:51 34.93598 -85.71236 29050 ft 462 kts 149°
2026-05-06 14:51 34.91068 -85.68830 28496 ft 460 kts 150°
2026-05-06 14:52 34.88768 -85.66649 27990 ft 458 kts 150°
2026-05-06 14:52 34.86252 -85.64268 27444 ft 456 kts 150°
2026-05-06 14:52 34.83748 -85.61903 26909 ft 454 kts 150°
2026-05-06 14:52 34.81256 -85.59546 26384 ft 453 kts 150°
2026-05-06 14:53 34.78772 -85.57197 25861 ft 451 kts 150°
2026-05-06 14:53 34.76305 -85.54866 25415 ft 447 kts 150°
2026-05-06 14:53 34.73862 -85.52555 24963 ft 443 kts 150°
2026-05-06 14:53 34.71466 -85.50291 24514 ft 441 kts 150°
2026-05-06 14:54 34.69049 -85.48010 24067 ft 438 kts 150°
2026-05-06 14:54 34.66649 -85.45750 23613 ft 435 kts 150°
2026-05-06 14:54 34.64262 -85.43504 23095 ft 433 kts 150°
2026-05-06 14:54 34.61893 -85.41273 22653 ft 429 kts 150°
2026-05-06 14:55 34.59547 -85.39064 22196 ft 425 kts 150°
2026-05-06 14:55 34.57217 -85.36873 21747 ft 421 kts 150°
2026-05-06 14:55 34.54908 -85.34708 21295 ft 419 kts 150°
2026-05-06 14:55 34.52611 -85.32556 20849 ft 416 kts 150°
2026-05-06 14:56 34.50327 -85.30412 20384 ft 414 kts 150°
2026-05-06 14:56 34.48050 -85.28279 19926 ft 413 kts 150°
2026-05-06 14:56 34.45753 -85.26127 19466 ft 411 kts 150°
2026-05-06 14:56 34.43494 -85.24010 19011 ft 410 kts 150°
2026-05-06 14:57 34.41236 -85.21899 18556 ft 409 kts 150°
2026-05-06 14:57 34.39011 -85.19823 18072 ft 408 kts 150°
2026-05-06 14:57 34.36733 -85.17695 17500 ft 408 kts 150°
2026-05-06 14:57 34.34518 -85.15619 17056 ft 397 kts 150°
2026-05-06 14:58 34.32369 -85.13601 16624 ft 386 kts 150°
2026-05-06 14:58 34.30256 -85.11623 16199 ft 383 kts 150°
2026-05-06 14:58 34.28156 -85.09665 15781 ft 380 kts 150°
2026-05-06 14:58 34.26065 -85.07718 15357 ft 378 kts 151°
2026-05-06 14:59 34.23987 -85.05785 14935 ft 376 kts 151°
2026-05-06 14:59 34.21919 -85.03865 14508 ft 374 kts 151°
2026-05-06 14:59 34.19857 -85.01956 14121 ft 373 kts 151°
2026-05-06 14:59 34.17803 -85.00055 13682 ft 371 kts 151°
2026-05-06 15:00 34.15762 -84.98160 13255 ft 368 kts 151°
2026-05-06 15:00 34.13766 -84.96301 12862 ft 365 kts 150°
2026-05-06 15:00 34.11794 -84.94442 12715 ft 355 kts 150°
2026-05-06 15:00 34.09873 -84.92616 12515 ft 349 kts 150°
2026-05-06 15:01 34.07973 -84.90814 12321 ft 346 kts 150°
2026-05-06 15:01 34.06079 -84.89025 12135 ft 345 kts 150°
2026-05-06 15:01 34.04194 -84.87244 11945 ft 344 kts 150°
2026-05-06 15:01 34.02315 -84.85467 11739 ft 343 kts 150°
2026-05-06 15:02 34.00442 -84.83697 11538 ft 342 kts 149°
2026-05-06 15:02 33.98572 -84.81928 11337 ft 340 kts 149°
2026-05-06 15:02 33.96713 -84.80173 11128 ft 339 kts 149°
2026-05-06 15:02 33.94862 -84.78421 10942 ft 338 kts 149°
2026-05-06 15:03 33.93016 -84.76677 10743 ft 336 kts 149°
2026-05-06 15:03 33.91174 -84.74943 10546 ft 335 kts 149°
2026-05-06 15:03 33.89341 -84.73220 10366 ft 333 kts 149°
2026-05-06 15:03 33.87529 -84.71515 10200 ft 326 kts 149°
2026-05-06 15:04 33.85778 -84.69861 10048 ft 314 kts 149°
2026-05-06 15:04 33.84078 -84.68255 9839 ft 307 kts 149°
2026-05-06 15:04 33.82401 -84.66678 9729 ft 306 kts 149°
2026-05-06 15:04 33.80723 -84.65108 9574 ft 305 kts 150°
2026-05-06 15:05 33.79052 -84.63549 9405 ft 304 kts 149°
2026-05-06 15:05 33.77397 -84.62007 9240 ft 304 kts 149°
2026-05-06 15:05 33.75737 -84.60424 9060 ft 306 kts 144°
2026-05-06 15:05 33.74355 -84.58436 8893 ft 315 kts 126°
2026-05-06 15:06 33.73498 -84.55995 8702 ft 321 kts 106°
2026-05-06 15:06 33.73277 -84.53313 8522 ft 324 kts 91°
2026-05-06 15:06 33.73291 -84.50606 8327 ft 324 kts 91°
2026-05-06 15:06 33.73298 -84.47909 8142 ft 322 kts 91°
2026-05-06 15:07 33.73302 -84.45230 7963 ft 320 kts 91°
2026-05-06 15:07 33.73299 -84.42561 7778 ft 318 kts 91°
2026-05-06 15:07 33.73295 -84.39899 7605 ft 318 kts 91°
2026-05-06 15:07 33.73290 -84.37247 7411 ft 317 kts 91°
2026-05-06 15:08 33.73287 -84.34610 7241 ft 314 kts 91°
2026-05-06 15:08 33.73286 -84.32026 7062 ft 313 kts 91°
2026-05-06 15:08 33.73286 -84.29419 6878 ft 311 kts 91°
2026-05-06 15:08 33.73287 -84.26825 6703 ft 310 kts 90°
2026-05-06 15:09 33.73288 -84.24243 6528 ft 309 kts 90°
2026-05-06 15:09 33.73289 -84.21667 6346 ft 307 kts 90°
2026-05-06 15:09 33.73179 -84.19124 5968 ft 305 kts 105°
2026-05-06 15:09 33.72213 -84.16870 5163 ft 309 kts 137°
2026-05-06 15:10 33.70411 -84.15561 4576 ft 299 kts 171°
2026-05-06 15:10 33.68431 -84.15497 4414 ft 276 kts 197°
2026-05-06 15:10 33.66756 -84.16376 4284 ft 253 kts 220°
2026-05-06 15:10 33.65607 -84.17852 4227 ft 235 kts 241°
2026-05-06 15:11 33.65027 -84.19591 4200 ft 215 kts 258°
2026-05-06 15:11 33.64932 -84.21316 4087 ft 202 kts 269°
2026-05-06 15:11 33.64938 -84.22970 3884 ft 191 kts 268°
2026-05-06 15:11 33.64943 -84.24479 3659 ft 173 kts 268°
2026-05-06 15:12 33.64945 -84.25857 3462 ft 159 kts 267°
2026-05-06 15:12 33.64946 -84.27145 3276 ft 148 kts 267°
2026-05-06 15:12 33.64947 -84.28365 3077 ft 145 kts 267°
2026-05-06 15:12 33.64948 -84.29568 2878 ft 143 kts 267°
2026-05-06 15:13 33.64949 -84.30755 2690 ft 141 kts 266°
2026-05-06 15:13 33.64950 -84.31930 2516 ft 140 kts 266°
2026-05-06 15:13 33.64951 -84.33100 2337 ft 140 kts 266°
2026-05-06 15:13 33.64951 -84.34278 2154 ft 140 kts 267°
2026-05-06 15:14 33.64952 -84.35446 1961 ft 140 kts 266°
2026-05-06 15:14 33.64953 -84.36613 1780 ft 141 kts 266°
2026-05-06 15:14 33.64954 -84.37784 1581 ft 140 kts 264°
2026-05-06 15:14 33.64953 -84.38952 1399 ft 140 kts 264°
2026-05-06 15:15 33.64949 -84.40124 1233 ft 139 kts 266°
2026-05-06 15:15 33.64946 -84.41299 1052 ft 140 kts 266°
2026-05-06 15:15 33.64948 -84.42387 1276 ft 130 kts 266°
2026-05-06 15:15 33.64923 -84.43491 1976 ft 135 kts 264°
2026-05-06 15:16 33.64859 -84.44629 2689 ft 136 kts 262°
2026-05-06 15:16 33.64782 -84.45709 3318 ft 126 kts 262°
2026-05-06 15:16 33.64740 -84.46792 3546 ft 137 kts 268°
2026-05-06 15:16 33.64809 -84.47981 3801 ft 148 kts 273°
2026-05-06 15:17 33.64912 -84.49255 3978 ft 162 kts 269°
2026-05-06 15:17 33.64909 -84.50674 4010 ft 179 kts 266°
2026-05-06 15:17 33.64895 -84.52281 3993 ft 205 kts 272°
2026-05-06 15:17 33.65419 -84.53936 3974 ft 223 kts 304°
2026-05-06 15:18 33.66524 -84.55284 4003 ft 229 kts 313°
2026-05-06 15:18 33.67736 -84.56546 3994 ft 231 kts 314°
2026-05-06 15:18 33.69037 -84.57689 3997 ft 237 kts 332°
2026-05-06 15:18 33.70686 -84.58001 4004 ft 249 kts
2026-05-06 15:19 33.72308 -84.57236 4002 ft 257 kts 35°
2026-05-06 15:19 33.73432 -84.55572 4000 ft 263 kts 67°
2026-05-06 15:19 33.73861 -84.53442 4005 ft 263 kts 84°
2026-05-06 15:19 33.73951 -84.51262 3994 ft 261 kts 92°
2026-05-06 15:20 33.73908 -84.49084 3999 ft 261 kts 94°
2026-05-06 15:20 33.73846 -84.46901 4007 ft 263 kts 94°
2026-05-06 15:20 33.73771 -84.44709 4003 ft 263 kts 94°
2026-05-06 15:20 33.73691 -84.42521 4004 ft 262 kts 95°
2026-05-06 15:21 33.73619 -84.40336 4010 ft 261 kts 94°
2026-05-06 15:21 33.73546 -84.38155 3906 ft 262 kts 94°
2026-05-06 15:21 33.73467 -84.35972 3678 ft 261 kts 94°
2026-05-06 15:21 33.73388 -84.33793 3529 ft 260 kts 94°
2026-05-06 15:22 33.73303 -84.31648 3402 ft 260 kts 94°
2026-05-06 15:22 33.73231 -84.29492 3221 ft 258 kts 94°
2026-05-06 15:22 33.73163 -84.27344 3071 ft 257 kts 94°
2026-05-06 15:22 33.73091 -84.25207 2973 ft 254 kts 94°
2026-05-06 15:23 33.72966 -84.23090 2981 ft 254 kts 105°
2026-05-06 15:23 33.72280 -84.21198 3010 ft 240 kts 131°
2026-05-06 15:23 33.71111 -84.19908 2970 ft 221 kts 156°
2026-05-06 15:23 33.69706 -84.19309 2974 ft 210 kts 177°
2026-05-06 15:24 33.68277 -84.19372 2981 ft 203 kts 198°
2026-05-06 15:24 33.66934 -84.19855 2985 ft 200 kts 202°
2026-05-06 15:24 33.65803 -84.20615 2990 ft 175 kts 226°
2026-05-06 15:24 33.65153 -84.21724 2975 ft 156 kts 249°
2026-05-06 15:25 33.64938 -84.22966 2984 ft 152 kts 267°
2026-05-06 15:25 33.64940 -84.23798 3006 ft 149 kts 267°
2026-05-06 15:25 33.64942 -84.25032 3008 ft 146 kts 266°
2026-05-06 15:25 33.64944 -84.26233 3015 ft 143 kts 267°
2026-05-06 15:26 33.64945 -84.27421 3003 ft 142 kts 268°
2026-05-06 15:26 33.64947 -84.28610 2942 ft 143 kts 268°
2026-05-06 15:26 33.64948 -84.29802 2809 ft 142 kts 268°
2026-05-06 15:26 33.64949 -84.30981 2650 ft 140 kts 266°
2026-05-06 15:27 33.64950 -84.32152 2479 ft 140 kts 266°
2026-05-06 15:27 33.64951 -84.33325 2300 ft 141 kts 266°
2026-05-06 15:27 33.64952 -84.34494 2113 ft 139 kts 265°
2026-05-06 15:27 33.64952 -84.35652 1926 ft 139 kts 265°
2026-05-06 15:28 33.64956 -84.36812 1766 ft 140 kts 266°
2026-05-06 15:28 33.64966 -84.37976 1557 ft 139 kts 265°
2026-05-06 15:28 33.64962 -84.39134 1357 ft 139 kts 263°
2026-05-06 15:28 33.64949 -84.40309 1173 ft 141 kts 266°
2026-05-06 15:29 33.64948 -84.41456 1047 ft 138 kts 266°
2026-05-06 15:29 33.64950 -84.42425 1035 ft 86 kts 270°
2026-05-06 15:29 33.64954 -84.42936 1035 ft 35 kts 270°
2026-05-06 15:29 33.64927 -84.43177 1036 ft 27 kts 252°
2026-05-06 15:30 33.64864 -84.43309 1035 ft 12 kts 212°
2026-05-06 15:30 33.64832 -84.43310 1036 ft 0 kts 156°
2026-05-06 15:32 33.64811 -84.43299 1036 ft 8 kts 156°
2026-05-06 15:33 33.64790 -84.43214 1036 ft 13 kts 91°
2026-05-06 15:33 33.64748 -84.43138 1036 ft 11 kts 156°
2026-05-06 15:33 33.64663 -84.43153 1037 ft 15 kts 214°
2026-05-06 15:33 33.64613 -84.43243 1037 ft 13 kts 239°
2026-05-06 15:34 33.64569 -84.43336 1036 ft 12 kts 241°
2026-05-06 15:34 33.64542 -84.43396 1036 ft 10 kts 238°
2026-05-06 15:34 33.64486 -84.43427 1036 ft 4 kts 184°
2026-05-06 15:34 33.64485 -84.43427 1036 ft 0 kts 184°
2026-05-06 15:37 33.64483 -84.43427 1036 ft 2 kts 186°
2026-05-06 15:37 33.64467 -84.43447 1036 ft 6 kts 236°
2026-05-06 15:38 33.64459 -84.43517 1036 ft 11 kts 267°
2026-05-06 15:38 33.64459 -84.43629 1036 ft 11 kts 272°
2026-05-06 15:38 33.64457 -84.43729 1035 ft 11 kts 265°
2026-05-06 15:38 33.64444 -84.43848 1035 ft 14 kts 255°
2026-05-06 15:39 33.64429 -84.43970 1035 ft 16 kts 264°
2026-05-06 15:39 33.64409 -84.44090 1035 ft 12 kts 238°
2026-05-06 15:39 33.64323 -84.44117 1035 ft 15 kts 179°
2026-05-06 15:39 33.64214 -84.44117 1035 ft 17 kts 180°
2026-05-06 15:40 33.64122 -84.44118 1035 ft 12 kts 180°
2026-05-06 15:40 33.64028 -84.44117 1035 ft 15 kts 180°
2026-05-06 15:40 33.63933 -84.44118 1035 ft 13 kts 180°
2026-05-06 15:40 33.63876 -84.44118 1035 ft 9 kts 180°
2026-05-06 15:41 33.63814 -84.44118 1036 ft 5 kts 180°
2026-05-06 15:41 33.63792 -84.44136 1036 ft 4 kts 246°
2026-05-06 15:41 33.63791 -84.44163 1036 ft 1 kts 269°
2026-05-06 15:41 33.63790 -84.44173 1036 ft 1 kts 269°
2026-05-06 15:42 33.63790 -84.44183 1036 ft 1 kts 269°
2026-05-06 15:42 33.63790 -84.44192 1036 ft 1 kts 269°
2026-05-06 15:42 33.63790 -84.44195 1036 ft 0 kts 270°